Year,Month,Day,Hour,Minute,Value (Times are PST for temperature in C)
2018,06,17,00,00,18.60
2018,06,17,00,01,18.60
2018,06,17,00,02,18.60
2018,06,17,00,03,18.60
2018,06,17,00,04,18.50
2018,06,17,00,05,18.50
2018,06,17,00,06,18.50
2018,06,17,00,07,18.50
2018,06,17,00,08,18.40
2018,06,17,00,09,18.40
2018,06,17,00,10,18.40
2018,06,17,00,11,18.40
2018,06,17,00,12,18.40
2018,06,17,00,13,18.30
2018,06,17,00,14,18.30
2018,06,17,00,15,18.30
2018,06,17,00,16,18.30
2018,06,17,00,17,18.20
2018,06,17,00,18,18.20
2018,06,17,00,19,18.20
2018,06,17,00,20,18.10
2018,06,17,00,21,18.10
2018,06,17,00,22,18.10
2018,06,17,00,23,18.10
2018,06,17,00,24,18.00
2018,06,17,00,25,18.00
2018,06,17,00,26,18.00
2018,06,17,00,27,17.90
2018,06,17,00,28,17.90
2018,06,17,00,29,17.90
2018,06,17,00,30,17.90
2018,06,17,00,31,17.90
2018,06,17,00,32,17.90
2018,06,17,00,33,17.90
2018,06,17,00,34,17.90
2018,06,17,00,35,17.90
2018,06,17,00,36,17.80
2018,06,17,00,37,17.90
2018,06,17,00,38,17.90
2018,06,17,00,39,17.90
2018,06,17,00,40,17.90
2018,06,17,00,41,17.90
2018,06,17,00,42,17.90
2018,06,17,00,43,17.90
2018,06,17,00,44,17.90
2018,06,17,00,45,17.90
2018,06,17,00,46,17.90
2018,06,17,00,47,17.90
2018,06,17,00,48,17.90
2018,06,17,00,49,17.90
2018,06,17,00,50,17.90
2018,06,17,00,51,17.90
2018,06,17,00,52,18.00
2018,06,17,00,53,18.00
2018,06,17,00,54,18.00
2018,06,17,00,55,18.10
2018,06,17,00,56,18.10
2018,06,17,00,57,18.20
2018,06,17,00,58,18.20
2018,06,17,00,59,18.20
2018,06,17,01,00,18.20
2018,06,17,01,01,18.20
2018,06,17,01,02,18.20
2018,06,17,01,03,18.20
2018,06,17,01,04,18.20
2018,06,17,01,05,18.20
2018,06,17,01,06,18.20
2018,06,17,01,07,18.20
2018,06,17,01,08,18.20
2018,06,17,01,09,18.20
2018,06,17,01,10,18.20
2018,06,17,01,11,18.20
2018,06,17,01,12,18.20
2018,06,17,01,13,18.20
2018,06,17,01,14,18.20
2018,06,17,01,15,18.20
2018,06,17,01,16,18.20
2018,06,17,01,17,18.10
2018,06,17,01,18,18.10
2018,06,17,01,19,18.10
2018,06,17,01,20,18.00
2018,06,17,01,21,18.00
2018,06,17,01,22,18.00
2018,06,17,01,23,17.90
2018,06,17,01,24,17.90
2018,06,17,01,25,17.90
2018,06,17,01,26,17.80
2018,06,17,01,27,17.80
2018,06,17,01,28,17.80
2018,06,17,01,29,17.70
2018,06,17,01,30,17.70
2018,06,17,01,31,17.60
2018,06,17,01,32,17.60
2018,06,17,01,33,17.50
2018,06,17,01,34,17.40
2018,06,17,01,35,17.30
2018,06,17,01,36,17.30
2018,06,17,01,37,17.20
2018,06,17,01,38,17.20
2018,06,17,01,39,17.10
2018,06,17,01,40,17.10
2018,06,17,01,41,17.00
2018,06,17,01,42,17.00
2018,06,17,01,43,16.90
2018,06,17,01,44,16.90
2018,06,17,01,45,16.90
2018,06,17,01,46,16.90
2018,06,17,01,47,16.80
2018,06,17,01,48,16.80
2018,06,17,01,49,16.80
2018,06,17,01,50,16.80
2018,06,17,01,51,16.80
2018,06,17,01,52,16.80
2018,06,17,01,53,16.80
2018,06,17,01,54,16.80
2018,06,17,01,55,16.80
2018,06,17,01,56,16.80
2018,06,17,01,57,16.70
2018,06,17,01,58,16.70
2018,06,17,01,59,16.80
2018,06,17,02,00,16.80
2018,06,17,02,01,16.80
2018,06,17,02,02,16.80
2018,06,17,02,03,16.80
2018,06,17,02,04,16.80
2018,06,17,02,05,16.80
2018,06,17,02,06,16.70
2018,06,17,02,07,16.70
2018,06,17,02,08,16.70
2018,06,17,02,09,16.70
2018,06,17,02,10,16.70
2018,06,17,02,11,16.70
2018,06,17,02,12,16.70
2018,06,17,02,13,16.70
2018,06,17,02,14,16.70
2018,06,17,02,15,16.70
2018,06,17,02,16,16.70
2018,06,17,02,17,16.70
2018,06,17,02,18,16.70
2018,06,17,02,19,16.70
2018,06,17,02,20,16.70
2018,06,17,02,21,16.60
2018,06,17,02,22,16.60
2018,06,17,02,23,16.60
2018,06,17,02,24,16.60
2018,06,17,02,25,16.60
2018,06,17,02,26,16.60
2018,06,17,02,27,16.60
2018,06,17,02,28,16.60
2018,06,17,02,29,16.60
2018,06,17,02,30,16.60
2018,06,17,02,31,16.60
2018,06,17,02,32,16.50
2018,06,17,02,33,16.50
2018,06,17,02,34,16.50
2018,06,17,02,35,16.50
2018,06,17,02,36,16.50
2018,06,17,02,37,16.40
2018,06,17,02,38,16.40
2018,06,17,02,39,16.40
2018,06,17,02,40,16.40
2018,06,17,02,41,16.40
2018,06,17,02,42,16.30
2018,06,17,02,43,16.30
2018,06,17,02,44,16.30
2018,06,17,02,45,16.30
2018,06,17,02,46,16.30
2018,06,17,02,47,16.30
2018,06,17,02,48,16.30
2018,06,17,02,49,16.30
2018,06,17,02,50,16.30
2018,06,17,02,51,16.20
2018,06,17,02,52,16.20
2018,06,17,02,53,16.20
2018,06,17,02,54,16.20
2018,06,17,02,55,16.20
2018,06,17,02,56,16.20
2018,06,17,02,57,16.20
2018,06,17,02,58,16.10
2018,06,17,02,59,16.10
2018,06,17,03,00,16.10
2018,06,17,03,01,16.10
2018,06,17,03,02,16.10
2018,06,17,03,03,16.00
2018,06,17,03,04,16.00
2018,06,17,03,05,16.00
2018,06,17,03,06,15.90
2018,06,17,03,07,15.90
2018,06,17,03,08,15.90
2018,06,17,03,09,15.80
2018,06,17,03,10,15.80
2018,06,17,03,11,15.80
2018,06,17,03,12,15.80
2018,06,17,03,13,15.70
2018,06,17,03,14,15.70
2018,06,17,03,15,15.70
2018,06,17,03,16,15.70
2018,06,17,03,17,15.70
2018,06,17,03,18,15.60
2018,06,17,03,19,15.60
2018,06,17,03,20,15.60
2018,06,17,03,21,15.50
2018,06,17,03,22,15.50
2018,06,17,03,23,15.50
2018,06,17,03,24,15.40
2018,06,17,03,25,15.40
2018,06,17,03,26,15.40
2018,06,17,03,27,15.40
2018,06,17,03,28,15.30
2018,06,17,03,29,15.30
2018,06,17,03,30,15.30
2018,06,17,03,31,15.30
2018,06,17,03,32,15.30
2018,06,17,03,33,15.20
2018,06,17,03,34,15.20
2018,06,17,03,35,15.20
2018,06,17,03,36,15.20
2018,06,17,03,37,15.10
2018,06,17,03,38,15.10
2018,06,17,03,39,15.10
2018,06,17,03,40,15.10
2018,06,17,03,41,15.10
2018,06,17,03,42,15.00
2018,06,17,03,43,15.00
2018,06,17,03,44,14.90
2018,06,17,03,45,14.90
2018,06,17,03,46,14.90
2018,06,17,03,47,14.90
2018,06,17,03,48,14.90
2018,06,17,03,49,14.80
2018,06,17,03,50,14.80
2018,06,17,03,51,14.80
2018,06,17,03,52,14.80
2018,06,17,03,53,14.80
2018,06,17,03,54,14.80
2018,06,17,03,55,14.80
2018,06,17,03,56,14.70
2018,06,17,03,57,14.70
2018,06,17,03,58,14.70
2018,06,17,03,59,14.70
2018,06,17,04,00,14.70
2018,06,17,04,01,14.70
2018,06,17,04,02,14.60
2018,06,17,04,03,14.60
2018,06,17,04,04,14.60
2018,06,17,04,05,14.50
2018,06,17,04,06,14.50
2018,06,17,04,07,14.50
2018,06,17,04,08,14.50
2018,06,17,04,09,14.40
2018,06,17,04,10,14.40
2018,06,17,04,11,14.40
2018,06,17,04,12,14.40
2018,06,17,04,13,14.30
2018,06,17,04,14,14.30
2018,06,17,04,15,14.30
2018,06,17,04,16,14.30
2018,06,17,04,17,14.20
2018,06,17,04,18,14.20
2018,06,17,04,19,14.20
2018,06,17,04,20,14.20
2018,06,17,04,21,14.20
2018,06,17,04,22,14.20
2018,06,17,04,23,14.20
2018,06,17,04,24,14.20
2018,06,17,04,25,14.20
2018,06,17,04,26,14.10
2018,06,17,04,27,14.10
2018,06,17,04,28,14.10
2018,06,17,04,29,14.10
2018,06,17,04,30,14.00
2018,06,17,04,31,14.00
2018,06,17,04,32,14.00
2018,06,17,04,33,13.90
2018,06,17,04,34,13.90
2018,06,17,04,35,13.90
2018,06,17,04,36,13.90
2018,06,17,04,37,13.80
2018,06,17,04,38,13.80
2018,06,17,04,39,13.80
2018,06,17,04,40,13.80
2018,06,17,04,41,13.80
2018,06,17,04,42,13.80
2018,06,17,04,43,13.80
2018,06,17,04,44,13.70
2018,06,17,04,45,13.70
2018,06,17,04,46,13.70
2018,06,17,04,47,13.70
2018,06,17,04,48,13.70
2018,06,17,04,49,13.70
2018,06,17,04,50,13.70
2018,06,17,04,51,13.70
2018,06,17,04,52,13.60
2018,06,17,04,53,13.60
2018,06,17,04,54,13.60
2018,06,17,04,55,13.60
2018,06,17,04,56,13.60
2018,06,17,04,57,13.60
2018,06,17,04,58,13.60
2018,06,17,04,59,13.50
2018,06,17,05,00,13.50
2018,06,17,05,01,13.50
2018,06,17,05,02,13.50
2018,06,17,05,03,13.40
2018,06,17,05,04,13.40
2018,06,17,05,05,13.40
2018,06,17,05,06,13.40
2018,06,17,05,07,13.40
2018,06,17,05,08,13.40
2018,06,17,05,09,13.40
2018,06,17,05,10,13.30
2018,06,17,05,11,13.30
2018,06,17,05,12,13.30
2018,06,17,05,13,13.30
2018,06,17,05,14,13.30
2018,06,17,05,15,13.30
2018,06,17,05,16,13.30
2018,06,17,05,17,13.20
2018,06,17,05,18,13.20
2018,06,17,05,19,13.20
2018,06,17,05,20,13.20
2018,06,17,05,21,13.20
2018,06,17,05,22,13.20
2018,06,17,05,23,13.10
2018,06,17,05,24,13.10
2018,06,17,05,25,13.10
2018,06,17,05,26,13.10
2018,06,17,05,27,13.10
2018,06,17,05,28,13.10
2018,06,17,05,29,13.00
2018,06,17,05,30,13.00
2018,06,17,05,31,13.00
2018,06,17,05,32,12.90
2018,06,17,05,33,12.90
2018,06,17,05,34,12.90
2018,06,17,05,35,12.90
2018,06,17,05,36,12.90
2018,06,17,05,37,12.90
2018,06,17,05,38,12.80
2018,06,17,05,39,12.80
2018,06,17,05,40,12.80
2018,06,17,05,41,12.80
2018,06,17,05,42,12.80
2018,06,17,05,43,12.90
2018,06,17,05,44,12.90
2018,06,17,05,45,12.90
2018,06,17,05,46,12.90
2018,06,17,05,47,12.90
2018,06,17,05,48,12.80
2018,06,17,05,49,12.80
2018,06,17,05,50,12.80
2018,06,17,05,51,12.90
2018,06,17,05,52,12.90
2018,06,17,05,53,12.90
2018,06,17,05,54,12.90
2018,06,17,05,55,12.80
2018,06,17,05,56,12.80
2018,06,17,05,57,12.80
2018,06,17,05,58,12.80
2018,06,17,05,59,12.80
2018,06,17,06,00,12.80
2018,06,17,06,01,12.80
2018,06,17,06,02,12.70
2018,06,17,06,03,12.70
2018,06,17,06,04,12.70
2018,06,17,06,05,12.70
2018,06,17,06,06,12.70
2018,06,17,06,07,12.70
2018,06,17,06,08,12.70
2018,06,17,06,09,12.80
2018,06,17,06,10,12.80
2018,06,17,06,11,12.80
2018,06,17,06,12,12.80
2018,06,17,06,13,12.80
2018,06,17,06,14,12.80
2018,06,17,06,15,12.80
2018,06,17,06,16,12.80
2018,06,17,06,17,12.80
2018,06,17,06,18,12.80
2018,06,17,06,19,12.80
2018,06,17,06,20,12.80
2018,06,17,06,21,12.80
2018,06,17,06,22,12.80
2018,06,17,06,23,12.80
2018,06,17,06,24,12.80
2018,06,17,06,25,12.80
2018,06,17,06,26,12.80
2018,06,17,06,27,12.90
2018,06,17,06,28,12.90
2018,06,17,06,29,12.90
2018,06,17,06,30,13.00
2018,06,17,06,31,13.00
2018,06,17,06,32,13.00
2018,06,17,06,33,13.00
2018,06,17,06,34,13.10
2018,06,17,06,35,13.10
2018,06,17,06,36,13.20
2018,06,17,06,37,13.20
2018,06,17,06,38,13.30
2018,06,17,06,39,13.30
2018,06,17,06,40,13.40
2018,06,17,06,41,13.40
2018,06,17,06,42,13.40
2018,06,17,06,43,13.50
2018,06,17,06,44,13.50
2018,06,17,06,45,13.50
2018,06,17,06,46,13.60
2018,06,17,06,47,13.60
2018,06,17,06,48,13.60
2018,06,17,06,49,13.60
2018,06,17,06,50,13.60
2018,06,17,06,51,13.70
2018,06,17,06,52,13.70
2018,06,17,06,53,13.70
2018,06,17,06,54,13.80
2018,06,17,06,55,13.80
2018,06,17,06,56,13.80
2018,06,17,06,57,13.80
2018,06,17,06,58,13.90
2018,06,17,06,59,13.90
2018,06,17,07,00,13.90
2018,06,17,07,01,13.90
2018,06,17,07,02,14.00
2018,06,17,07,03,14.00
2018,06,17,07,04,14.10
2018,06,17,07,05,14.10
2018,06,17,07,06,14.10
2018,06,17,07,07,14.20
2018,06,17,07,08,14.20
2018,06,17,07,09,14.30
2018,06,17,07,10,14.30
2018,06,17,07,11,14.30
2018,06,17,07,12,14.40
2018,06,17,07,13,14.40
2018,06,17,07,14,14.50
2018,06,17,07,15,14.60
2018,06,17,07,16,14.60
2018,06,17,07,17,14.70
2018,06,17,07,18,14.70
2018,06,17,07,19,14.80
2018,06,17,07,20,14.80
2018,06,17,07,21,14.90
2018,06,17,07,22,15.00
2018,06,17,07,23,15.00
2018,06,17,07,24,15.10
2018,06,17,07,25,15.20
2018,06,17,07,26,15.30
2018,06,17,07,27,15.40
2018,06,17,07,28,15.50
2018,06,17,07,29,15.60
2018,06,17,07,30,15.70
2018,06,17,07,31,15.80
2018,06,17,07,32,16.00
2018,06,17,07,33,16.10
2018,06,17,07,34,16.20
2018,06,17,07,35,16.30
2018,06,17,07,36,16.40
2018,06,17,07,37,16.50
2018,06,17,07,38,16.70
2018,06,17,07,39,16.80
2018,06,17,07,40,16.90
2018,06,17,07,41,17.00
2018,06,17,07,42,17.00
2018,06,17,07,43,17.10
2018,06,17,07,44,17.10
2018,06,17,07,45,17.10
2018,06,17,07,46,17.10
2018,06,17,07,47,17.20
2018,06,17,07,48,17.20
2018,06,17,07,49,17.20
2018,06,17,07,50,17.20
2018,06,17,07,51,17.30
2018,06,17,07,52,17.30
2018,06,17,07,53,17.40
2018,06,17,07,54,17.40
2018,06,17,07,55,17.50
2018,06,17,07,56,17.50
2018,06,17,07,57,17.60
2018,06,17,07,58,17.70
2018,06,17,07,59,17.80
2018,06,17,08,00,17.90
2018,06,17,08,01,17.90
2018,06,17,08,02,18.00
2018,06,17,08,03,18.20
2018,06,17,08,04,18.30
2018,06,17,08,05,18.40
2018,06,17,08,06,18.60
2018,06,17,08,07,18.70
2018,06,17,08,08,18.90
2018,06,17,08,09,19.00
2018,06,17,08,10,19.10
2018,06,17,08,11,19.30
2018,06,17,08,12,19.40
2018,06,17,08,13,19.60
2018,06,17,08,14,19.70
2018,06,17,08,15,19.80
2018,06,17,08,16,19.90
2018,06,17,08,17,20.00
2018,06,17,08,18,20.10
2018,06,17,08,19,20.20
2018,06,17,08,20,20.20
2018,06,17,08,21,20.30
2018,06,17,08,22,20.40
2018,06,17,08,23,20.40
2018,06,17,08,24,20.50
2018,06,17,08,25,20.60
2018,06,17,08,26,20.80
2018,06,17,08,27,20.80
2018,06,17,08,28,21.00
2018,06,17,08,29,21.00
2018,06,17,08,30,21.10
2018,06,17,08,31,21.20
2018,06,17,08,32,21.20
2018,06,17,08,33,21.30
2018,06,17,08,34,21.30
2018,06,17,08,35,21.30
2018,06,17,08,36,21.30
2018,06,17,08,37,21.30
2018,06,17,08,38,21.20
2018,06,17,08,39,21.20
2018,06,17,08,40,21.20
2018,06,17,08,41,21.20
2018,06,17,08,42,21.20
2018,06,17,08,43,21.20
2018,06,17,08,44,21.20
2018,06,17,08,45,21.20
2018,06,17,08,46,21.20
2018,06,17,08,47,21.20
2018,06,17,08,48,21.20
2018,06,17,08,49,21.20
2018,06,17,08,50,21.20
2018,06,17,08,51,21.20
2018,06,17,08,52,21.30
2018,06,17,08,53,21.30
2018,06,17,08,54,21.30
2018,06,17,08,55,21.30
2018,06,17,08,56,21.40
2018,06,17,08,57,21.40
2018,06,17,08,58,21.40
2018,06,17,08,59,21.40
2018,06,17,09,00,21.40
2018,06,17,09,01,21.50
2018,06,17,09,02,21.50
2018,06,17,09,03,21.60
2018,06,17,09,04,21.60
2018,06,17,09,05,21.60
2018,06,17,09,06,21.60
2018,06,17,09,07,21.60
2018,06,17,09,08,21.60
2018,06,17,09,09,21.60
2018,06,17,09,10,21.60
2018,06,17,09,11,21.60
2018,06,17,09,12,21.60
2018,06,17,09,13,21.60
2018,06,17,09,14,21.70
2018,06,17,09,15,21.70
2018,06,17,09,16,21.80
2018,06,17,09,17,21.80
2018,06,17,09,18,21.80
2018,06,17,09,19,21.80
2018,06,17,09,20,21.90
2018,06,17,09,21,21.90
2018,06,17,09,22,21.80
2018,06,17,09,23,21.80
2018,06,17,09,24,21.70
2018,06,17,09,25,21.60
2018,06,17,09,26,21.50
2018,06,17,09,27,21.40
2018,06,17,09,28,21.30
2018,06,17,09,29,21.30
2018,06,17,09,30,21.30
2018,06,17,09,31,21.30
2018,06,17,09,32,21.30
2018,06,17,09,33,21.30
2018,06,17,09,34,21.30
2018,06,17,09,35,21.30
2018,06,17,09,36,21.40
2018,06,17,09,37,21.50
2018,06,17,09,38,21.50
2018,06,17,09,39,21.50
2018,06,17,09,40,21.40
2018,06,17,09,41,21.40
2018,06,17,09,42,21.40
2018,06,17,09,43,21.40
2018,06,17,09,44,21.40
2018,06,17,09,45,21.40
2018,06,17,09,46,21.40
2018,06,17,09,47,21.50
2018,06,17,09,48,21.50
2018,06,17,09,49,21.60
2018,06,17,09,50,21.70
2018,06,17,09,51,21.80
2018,06,17,09,52,21.90
2018,06,17,09,53,22.00
2018,06,17,09,54,22.00
2018,06,17,09,55,22.00
2018,06,17,09,56,22.10
2018,06,17,09,57,22.10
2018,06,17,09,58,22.10
2018,06,17,09,59,22.20
2018,06,17,10,00,22.20
2018,06,17,10,01,22.30
2018,06,17,10,02,22.30
2018,06,17,10,03,22.20
2018,06,17,10,04,22.20
2018,06,17,10,05,22.20
2018,06,17,10,06,22.20
2018,06,17,10,07,22.20
2018,06,17,10,08,22.30
2018,06,17,10,09,22.30
2018,06,17,10,10,22.30
2018,06,17,10,11,22.40
2018,06,17,10,12,22.40
2018,06,17,10,13,22.40
2018,06,17,10,14,22.30
2018,06,17,10,15,22.30
2018,06,17,10,16,22.20
2018,06,17,10,17,22.20
2018,06,17,10,18,22.10
2018,06,17,10,19,22.10
2018,06,17,10,20,22.00
2018,06,17,10,21,22.00
2018,06,17,10,22,22.00
2018,06,17,10,23,22.10
2018,06,17,10,24,22.10
2018,06,17,10,25,22.10
2018,06,17,10,26,22.10
2018,06,17,10,27,22.10
2018,06,17,10,28,22.00
2018,06,17,10,29,22.00
2018,06,17,10,30,22.00
2018,06,17,10,31,22.00
2018,06,17,10,32,21.90
2018,06,17,10,33,21.90
2018,06,17,10,34,21.90
2018,06,17,10,35,21.80
2018,06,17,10,36,21.80
2018,06,17,10,37,21.80
2018,06,17,10,38,21.80
2018,06,17,10,39,21.80
2018,06,17,10,40,21.80
2018,06,17,10,41,21.80
2018,06,17,10,42,21.90
2018,06,17,10,43,22.00
2018,06,17,10,44,22.10
2018,06,17,10,45,22.10
2018,06,17,10,46,22.20
2018,06,17,10,47,22.20
2018,06,17,10,48,22.20
2018,06,17,10,49,22.20
2018,06,17,10,50,22.20
2018,06,17,10,51,22.30
2018,06,17,10,52,22.30
2018,06,17,10,53,22.30
2018,06,17,10,54,22.40
2018,06,17,10,55,22.30
2018,06,17,10,56,22.30
2018,06,17,10,57,22.30
2018,06,17,10,58,22.30
2018,06,17,10,59,22.20
2018,06,17,11,00,22.10
2018,06,17,11,01,22.00
2018,06,17,11,02,21.90
2018,06,17,11,03,21.70
2018,06,17,11,04,21.60
2018,06,17,11,05,21.60
2018,06,17,11,06,21.60
2018,06,17,11,07,21.60
2018,06,17,11,08,21.60
2018,06,17,11,09,21.60
2018,06,17,11,10,21.70
2018,06,17,11,11,21.70
2018,06,17,11,12,21.80
2018,06,17,11,13,21.80
2018,06,17,11,14,21.80
2018,06,17,11,15,21.80
2018,06,17,11,16,21.80
2018,06,17,11,17,21.80
2018,06,17,11,18,21.90
2018,06,17,11,19,22.00
2018,06,17,11,20,22.10
2018,06,17,11,21,22.20
2018,06,17,11,22,22.30
2018,06,17,11,23,22.30
2018,06,17,11,24,22.30
2018,06,17,11,25,22.40
2018,06,17,11,26,22.40
2018,06,17,11,27,22.50
2018,06,17,11,28,22.50
2018,06,17,11,29,22.60
2018,06,17,11,30,22.70
2018,06,17,11,31,22.70
2018,06,17,11,32,22.80
2018,06,17,11,33,22.80
2018,06,17,11,34,22.90
2018,06,17,11,35,22.90
2018,06,17,11,36,22.90
2018,06,17,11,37,22.90
2018,06,17,11,38,22.90
2018,06,17,11,39,22.90
2018,06,17,11,40,22.90
2018,06,17,11,41,22.90
2018,06,17,11,42,23.00
2018,06,17,11,43,23.00
2018,06,17,11,44,23.10
2018,06,17,11,45,23.10
2018,06,17,11,46,23.20
2018,06,17,11,47,23.20
2018,06,17,11,48,23.20
2018,06,17,11,49,23.20
2018,06,17,11,50,23.20
2018,06,17,11,51,23.20
2018,06,17,11,52,23.10
2018,06,17,11,53,23.10
2018,06,17,11,54,23.10
2018,06,17,11,55,23.20
2018,06,17,11,56,23.20
2018,06,17,11,57,23.30
2018,06,17,11,58,23.30
2018,06,17,11,59,23.30
2018,06,17,12,00,23.30
2018,06,17,12,01,23.40
2018,06,17,12,02,23.40
2018,06,17,12,03,23.30
2018,06,17,12,04,23.30
2018,06,17,12,05,23.30
2018,06,17,12,06,23.20
2018,06,17,12,07,23.20
2018,06,17,12,08,23.20
2018,06,17,12,09,23.20
2018,06,17,12,10,23.30
2018,06,17,12,11,23.30
2018,06,17,12,12,23.30
2018,06,17,12,13,23.30
2018,06,17,12,14,23.20
2018,06,17,12,15,23.20
2018,06,17,12,16,23.20
2018,06,17,12,17,23.20
2018,06,17,12,18,23.20
2018,06,17,12,19,23.20
2018,06,17,12,20,23.20
2018,06,17,12,21,23.20
2018,06,17,12,22,23.20
2018,06,17,12,23,23.20
2018,06,17,12,24,23.30
2018,06,17,12,25,23.30
2018,06,17,12,26,23.30
2018,06,17,12,27,23.30
2018,06,17,12,28,23.30
2018,06,17,12,29,23.30
2018,06,17,12,30,23.40
2018,06,17,12,31,23.40
2018,06,17,12,32,23.50
2018,06,17,12,33,23.60
2018,06,17,12,34,23.60
2018,06,17,12,35,23.70
2018,06,17,12,36,23.70
2018,06,17,12,37,23.70
2018,06,17,12,38,23.80
2018,06,17,12,39,23.80
2018,06,17,12,40,23.80
2018,06,17,12,41,23.80
2018,06,17,12,42,23.80
2018,06,17,12,43,23.80
2018,06,17,12,44,23.80
2018,06,17,12,45,23.80
2018,06,17,12,46,23.90
2018,06,17,12,47,23.90
2018,06,17,12,48,23.90
2018,06,17,12,49,24.00
2018,06,17,12,50,24.10
2018,06,17,12,51,24.10
2018,06,17,12,52,24.10
2018,06,17,12,53,24.10
2018,06,17,12,54,24.20
2018,06,17,12,55,24.20
2018,06,17,12,56,24.30
2018,06,17,12,57,24.30
2018,06,17,12,58,24.40
2018,06,17,12,59,24.50
2018,06,17,13,00,24.60
2018,06,17,13,01,24.60
2018,06,17,13,02,24.70
2018,06,17,13,03,24.80
2018,06,17,13,04,24.90
2018,06,17,13,05,24.90
2018,06,17,13,06,25.00
2018,06,17,13,07,25.00
2018,06,17,13,08,25.10
2018,06,17,13,09,25.20
2018,06,17,13,10,25.20
2018,06,17,13,11,25.30
2018,06,17,13,12,25.30
2018,06,17,13,13,25.40
2018,06,17,13,14,25.40
2018,06,17,13,15,25.40
2018,06,17,13,16,25.40
2018,06,17,13,17,25.50
2018,06,17,13,18,25.50
2018,06,17,13,19,25.60
2018,06,17,13,20,25.70
2018,06,17,13,21,25.80
2018,06,17,13,22,25.80
2018,06,17,13,23,25.80
2018,06,17,13,24,25.80
2018,06,17,13,25,25.90
2018,06,17,13,26,25.90
2018,06,17,13,27,25.80
2018,06,17,13,28,25.80
2018,06,17,13,29,25.70
2018,06,17,13,30,25.60
2018,06,17,13,31,25.50
2018,06,17,13,32,25.50
2018,06,17,13,33,25.40
2018,06,17,13,34,25.40
2018,06,17,13,35,25.40
2018,06,17,13,36,25.40
2018,06,17,13,37,25.40
2018,06,17,13,38,25.50
2018,06,17,13,39,25.60
2018,06,17,13,40,25.60
2018,06,17,13,41,25.70
2018,06,17,13,42,25.70
2018,06,17,13,43,25.60
2018,06,17,13,44,25.60
2018,06,17,13,45,25.50
2018,06,17,13,46,25.30
2018,06,17,13,47,25.10
2018,06,17,13,48,25.00
2018,06,17,13,49,24.90
2018,06,17,13,50,24.80
2018,06,17,13,51,24.80
2018,06,17,13,52,24.80
2018,06,17,13,53,24.80
2018,06,17,13,54,24.80
2018,06,17,13,55,24.90
2018,06,17,13,56,24.90
2018,06,17,13,57,25.00
2018,06,17,13,58,25.10
2018,06,17,13,59,25.20
2018,06,17,14,00,25.30
2018,06,17,14,01,25.40
2018,06,17,14,02,25.50
2018,06,17,14,03,25.60
2018,06,17,14,04,25.60
2018,06,17,14,05,25.70
2018,06,17,14,06,25.70
2018,06,17,14,07,25.70
2018,06,17,14,08,25.70
2018,06,17,14,09,25.60
2018,06,17,14,10,25.50
2018,06,17,14,11,25.50
2018,06,17,14,12,25.50
2018,06,17,14,13,25.50
2018,06,17,14,14,25.60
2018,06,17,14,15,25.60
2018,06,17,14,16,25.60
2018,06,17,14,17,25.60
2018,06,17,14,18,25.70
2018,06,17,14,19,25.70
2018,06,17,14,20,25.80
2018,06,17,14,21,25.90
2018,06,17,14,22,26.00
2018,06,17,14,23,26.20
2018,06,17,14,24,26.40
2018,06,17,14,25,26.50
2018,06,17,14,26,26.70
2018,06,17,14,27,26.80
2018,06,17,14,28,26.90
2018,06,17,14,29,27.00
2018,06,17,14,30,27.10
2018,06,17,14,31,27.20
2018,06,17,14,32,27.40
2018,06,17,14,33,27.40
2018,06,17,14,34,27.50
2018,06,17,14,35,27.50
2018,06,17,14,36,27.60
2018,06,17,14,37,27.60
2018,06,17,14,38,27.60
2018,06,17,14,39,27.70
2018,06,17,14,40,27.70
2018,06,17,14,41,27.70
2018,06,17,14,42,27.70
2018,06,17,14,43,27.70
2018,06,17,14,44,27.80
2018,06,17,14,45,27.80
2018,06,17,14,46,27.80
2018,06,17,14,47,27.80
2018,06,17,14,48,27.70
2018,06,17,14,49,27.70
2018,06,17,14,50,27.60
2018,06,17,14,51,27.50
2018,06,17,14,52,27.20
2018,06,17,14,53,27.00
2018,06,17,14,54,26.70
2018,06,17,14,55,26.50
2018,06,17,14,56,26.30
2018,06,17,14,57,26.20
2018,06,17,14,58,26.10
2018,06,17,14,59,26.00
2018,06,17,15,00,25.90
2018,06,17,15,01,25.90
2018,06,17,15,02,25.90
2018,06,17,15,03,25.90
2018,06,17,15,04,25.80
2018,06,17,15,05,25.80
2018,06,17,15,06,25.70
2018,06,17,15,07,25.60
2018,06,17,15,08,25.60
2018,06,17,15,09,25.50
2018,06,17,15,10,25.50
2018,06,17,15,11,25.60
2018,06,17,15,12,25.60
2018,06,17,15,13,25.60
2018,06,17,15,14,25.60
2018,06,17,15,15,25.60
2018,06,17,15,16,25.60
2018,06,17,15,17,25.70
2018,06,17,15,18,25.70
2018,06,17,15,19,25.70
2018,06,17,15,20,25.60
2018,06,17,15,21,25.60
2018,06,17,15,22,25.50
2018,06,17,15,23,25.50
2018,06,17,15,24,25.40
2018,06,17,15,25,25.40
2018,06,17,15,26,25.40
2018,06,17,15,27,25.40
2018,06,17,15,28,25.40
2018,06,17,15,29,25.40
2018,06,17,15,30,25.40
2018,06,17,15,31,25.50
2018,06,17,15,32,25.50
2018,06,17,15,33,25.60
2018,06,17,15,34,25.60
2018,06,17,15,35,25.60
2018,06,17,15,36,25.60
2018,06,17,15,37,25.70
2018,06,17,15,38,25.70
2018,06,17,15,39,25.70
2018,06,17,15,40,25.70
2018,06,17,15,41,25.80
2018,06,17,15,42,25.80
2018,06,17,15,43,25.80
2018,06,17,15,44,25.80
2018,06,17,15,45,25.80
2018,06,17,15,46,25.80
2018,06,17,15,47,25.90
2018,06,17,15,48,25.90
2018,06,17,15,49,25.90
2018,06,17,15,50,25.90
2018,06,17,15,51,25.90
2018,06,17,15,52,25.90
2018,06,17,15,53,25.90
2018,06,17,15,54,25.90
2018,06,17,15,55,25.90
2018,06,17,15,56,25.90
2018,06,17,15,57,25.90
2018,06,17,15,58,26.00
2018,06,17,15,59,26.00
2018,06,17,16,00,26.00
2018,06,17,16,01,26.00
2018,06,17,16,02,26.00
2018,06,17,16,03,26.10
2018,06,17,16,04,26.20
2018,06,17,16,05,26.30
2018,06,17,16,06,26.40
2018,06,17,16,07,26.50
2018,06,17,16,08,26.60
2018,06,17,16,09,26.70
2018,06,17,16,10,26.80
2018,06,17,16,11,26.90
2018,06,17,16,12,27.00
2018,06,17,16,13,27.10
2018,06,17,16,14,27.20
2018,06,17,16,15,27.30
2018,06,17,16,16,27.30
2018,06,17,16,17,27.30
2018,06,17,16,18,27.40
2018,06,17,16,19,27.40
2018,06,17,16,20,27.50
2018,06,17,16,21,27.50
2018,06,17,16,22,27.60
2018,06,17,16,23,27.60
2018,06,17,16,24,27.70
2018,06,17,16,25,27.70
2018,06,17,16,26,27.80
2018,06,17,16,27,27.80
2018,06,17,16,28,27.90
2018,06,17,16,29,27.90
2018,06,17,16,30,28.00
2018,06,17,16,31,28.10
2018,06,17,16,32,28.10
2018,06,17,16,33,28.20
2018,06,17,16,34,28.20
2018,06,17,16,35,28.20
2018,06,17,16,36,28.20
2018,06,17,16,37,28.20
2018,06,17,16,38,28.20
2018,06,17,16,39,28.20
2018,06,17,16,40,28.30
2018,06,17,16,41,28.30
2018,06,17,16,42,28.30
2018,06,17,16,43,28.40
2018,06,17,16,44,28.40
2018,06,17,16,45,28.40
2018,06,17,16,46,28.30
2018,06,17,16,47,28.20
2018,06,17,16,48,28.10
2018,06,17,16,49,27.90
2018,06,17,16,50,27.70
2018,06,17,16,51,27.60
2018,06,17,16,52,27.40
2018,06,17,16,53,27.30
2018,06,17,16,54,27.20
2018,06,17,16,55,27.20
2018,06,17,16,56,27.10
2018,06,17,16,57,27.10
2018,06,17,16,58,27.10
2018,06,17,16,59,27.00
2018,06,17,17,00,27.00
2018,06,17,17,01,27.00
2018,06,17,17,02,27.00
2018,06,17,17,03,27.00
2018,06,17,17,04,27.00
2018,06,17,17,05,27.10
2018,06,17,17,06,27.10
2018,06,17,17,07,27.20
2018,06,17,17,08,27.30
2018,06,17,17,09,27.30
2018,06,17,17,10,27.40
2018,06,17,17,11,27.50
2018,06,17,17,12,27.60
2018,06,17,17,13,27.70
2018,06,17,17,14,27.80
2018,06,17,17,15,27.90
2018,06,17,17,16,28.00
2018,06,17,17,17,28.10
2018,06,17,17,18,28.20
2018,06,17,17,19,28.30